�������r�C�����j�^�v���󋵏��
Date,Time,5�C6���@���p�r�C��,����,����(m/s)
2022/02/13,00:00,4.1,��쐼,4.5
2022/02/13,00:10,4.0,��쐼,4.3
2022/02/13,00:20,4.2,�쐼,3.2
2022/02/13,00:30,4.3,�쐼,3.1
2022/02/13,00:40,4.1,�쐼,4.1
2022/02/13,00:50,4.2,�쐼,4.5
2022/02/13,01:00,4.2,��쐼,4.6
2022/02/13,01:10,4.2,��쐼,5.9
2022/02/13,01:20,4.2,��쐼,7.3
2022/02/13,01:30,4.1,��,7.2
2022/02/13,01:40,4.3,��쐼,6.8
2022/02/13,01:50,3.9,��쐼,6.1
2022/02/13,02:00,4.0,��쐼,5.3
2022/02/13,02:10,3.9,��쐼,4.8
2022/02/13,02:20,4.2,�쐼,5.1
2022/02/13,02:30,4.2,�쐼,4.6
2022/02/13,02:40,4.1,�쐼,4.0
2022/02/13,02:50,4.0,�쐼,4.2
2022/02/13,03:00,4.1,�쐼,4.1
2022/02/13,03:10,4.1,�쐼,3.1
2022/02/13,03:20,4.2,�쐼,3.0
2022/02/13,03:30,4.1,�쐼,2.6
2022/02/13,03:40,4.0,�쐼,2.8
2022/02/13,03:50,4.1,��쐼,2.6
2022/02/13,04:00,4.1,�쐼,1.2
2022/02/13,04:10,4.0,-,CALM
2022/02/13,04:20,4.2,��,0.9
2022/02/13,04:30,4.1,���k��,1.7
2022/02/13,04:40,4.0,���k��,1.5
2022/02/13,04:50,4.1,�k��,0.8
2022/02/13,05:00,4.1,���k��,2.0
2022/02/13,05:10,4.3,��,3.9
2022/02/13,05:20,3.9,��,3.4
2022/02/13,05:30,4.0,���k��,3.8
2022/02/13,05:40,4.1,���k��,2.8
2022/02/13,05:50,4.2,�k�k��,1.9
2022/02/13,06:00,4.0,�k�k��,2.3
2022/02/13,06:10,4.0,�k�k��,2.6
2022/02/13,06:20,4.0,�k�k��,2.9
2022/02/13,06:30,4.2,�k�k��,3.3
2022/02/13,06:40,4.0,�k�k��,3.4
2022/02/13,06:50,4.3,�k��,3.1
2022/02/13,07:00,4.1,�k��,3.0
2022/02/13,07:10,4.1,�k��,2.8
2022/02/13,07:20,4.0,�k��,3.1
2022/02/13,07:30,4.1,���k��,2.5
2022/02/13,07:40,4.0,�k��,4.3
2022/02/13,07:50,4.2,�k��,4.1
2022/02/13,08:00,4.1,�k��,4.9
2022/02/13,08:10,3.9,�k��,6.5
2022/02/13,08:20,4.0,�k�k��,6.6
2022/02/13,08:30,4.0,�k�k��,7.3
2022/02/13,08:40,4.0,�k�k��,6.6
2022/02/13,08:50,4.1,�k�k��,7.5
2022/02/13,09:00,4.2,�k�k��,6.7
2022/02/13,09:10,4.2,�k�k��,5.0
2022/02/13,09:20,4.2,�k�k��,4.2
2022/02/13,09:30,4.0,�k�k��,3.1
2022/02/13,09:40,4.0,�k�k��,3.1
2022/02/13,09:50,4.0,�k��,3.1
2022/02/13,10:00,4.3,�k��,2.0
2022/02/13,10:10,4.2,�k,2.5
2022/02/13,10:20,4.1,�k�k��,3.3
2022/02/13,10:30,4.0,�k,2.9
2022/02/13,10:40,4.2,�k�k��,3.3
2022/02/13,10:50,4.0,�k�k��,5.2
2022/02/13,11:00,4.0,�k�k��,4.0
2022/02/13,11:10,4.1,�k,3.4
2022/02/13,11:20,4.2,�k��,3.8
2022/02/13,11:30,4.1,�k��,4.8
2022/02/13,11:40,4.1,�k��,4.5
2022/02/13,11:50,4.1,���k��,4.3
2022/02/13,12:00,4.3,�k��,4.6
2022/02/13,12:10,4.1,�k��,4.4
2022/02/13,12:20,4.0,�k�k��,3.9
2022/02/13,12:30,4.1,�k��,3.2
2022/02/13,12:40,4.1,�k��,4.3
2022/02/13,12:50,4.2,�k��,4.7
2022/02/13,13:00,4.1,�k��,5.7
2022/02/13,13:10,3.9,�k�k��,5.5
2022/02/13,13:20,4.0,�k�k��,6.3
2022/02/13,13:30,4.1,�k�k��,6.1
2022/02/13,13:40,4.2,�k�k��,6.3
2022/02/13,13:50,4.0,�k�k��,5.8
2022/02/13,14:00,4.1,�k�k��,4.6
2022/02/13,14:10,4.2,�k�k��,5.1
2022/02/13,14:20,4.1,�k�k��,4.9
2022/02/13,14:30,4.0,�k�k��,5.0
2022/02/13,14:40,4.2,�k�k��,5.4
2022/02/13,14:50,4.0,�k�k��,4.5
2022/02/13,15:00,3.9,�k,4.5
2022/02/13,15:10,4.2,�k�k��,4.4
2022/02/13,15:20,4.1,�k,3.7
2022/02/13,15:30,4.2,�k�k��,3.5
2022/02/13,15:40,4.1,�k�k��,3.4
2022/02/13,15:50,4.2,�k�k��,2.2
2022/02/13,16:00,4.2,�k��,1.7
2022/02/13,16:10,4.1,�k�k��,1.4
2022/02/13,16:20,4.0,-,CALM
2022/02/13,16:30,4.2,-,CALM
2022/02/13,16:40,3.9,��,1.5
2022/02/13,16:50,4.2,��쐼,2.6
2022/02/13,17:00,3.9,��,2.6
2022/02/13,17:10,4.1,��쓌,2.8
2022/02/13,17:20,4.2,��쓌,2.0
2022/02/13,17:30,3.9,��,2.0
2022/02/13,17:40,4.1,��,1.7
2022/02/13,17:50,4.1,��,1.2
2022/02/13,18:00,4.0,��,1.9
2022/02/13,18:10,4.1,��쐼,1.5
2022/02/13,18:20,4.0,�쐼,1.9
2022/02/13,18:30,4.3,��쐼,1.2
2022/02/13,18:40,4.0,��쐼,2.0
2022/02/13,18:50,4.1,�쐼,1.5
2022/02/13,19:00,4.0,�쐼,2.0
2022/02/13,19:10,3.9,���쐼,2.8
2022/02/13,19:20,4.2,���쐼,2.6
2022/02/13,19:30,4.0,���쐼,1.7
2022/02/13,19:40,4.3,�쐼,1.9
2022/02/13,19:50,4.1,���쐼,2.0
2022/02/13,20:00,4.4,���쐼,1.5
2022/02/13,20:10,4.1,�쐼,1.5
2022/02/13,20:20,4.0,�쐼,0.9
2022/02/13,20:30,4.1,�쐼,2.0
2022/02/13,20:40,4.2,���쐼,2.3
2022/02/13,20:50,3.9,���쐼,2.5
2022/02/13,21:00,4.1,���쐼,1.7
2022/02/13,21:10,4.2,���쐼,1.4
2022/02/13,21:20,4.1,��,1.4
2022/02/13,21:30,4.0,���k��,1.5
2022/02/13,21:40,4.0,���k��,1.9
2022/02/13,21:50,4.1,���k��,3.1
2022/02/13,22:00,4.0,���k��,3.7
2022/02/13,22:10,4.0,�k��,4.3
2022/02/13,22:20,4.1,�k��,3.9
2022/02/13,22:30,4.1,�k��,2.9
2022/02/13,22:40,4.1,�k��,2.5
2022/02/13,22:50,3.9,�k��,3.0
2022/02/13,23:00,4.1,�k��,2.8
2022/02/13,23:10,4.2,�k�k��,3.6
2022/02/13,23:20,4.0,�k�k��,3.5
2022/02/13,23:30,4.0,�k,2.9
2022/02/13,23:40,4.1,�k�k��,2.8
2022/02/13,23:50,4.1,�k,1.9
